• In Deutschland
  • Länderverzeichnis
  • Für 7 Tage
  • Wassertemperatur
  • Satellitenkarten
  • Wetterkarte
  • Widgets
  • user-avatar
    Anmelden

    Stündliche Wetter Filderstadt

    Heute, 11 Dezember, Montag

    Zeit Temperatur Niederschläge Wind Luftdruck Luftfeuchtigkeit
    00:00 +3°C° 0,3 mm 5 m/S 706 mmHg 87%
    01:00 +3°C° 0 mm 5 m/S 706 mmHg 89%
    02:00 +3°C° 0,3 mm 4 m/S 706 mmHg 90%
    03:00 +3°C° 0,3 mm 3 m/S 706 mmHg 91%
    04:00 +4°C° 0,3 mm 2 m/S 705 mmHg 92%
    05:00 +4°C° 0,8 mm 2 m/S 705 mmHg 92%
    06:00 +3°C° 0,8 mm 2 m/S 704 mmHg 92%
    07:00 +3°C° 0,8 mm 2 m/S 703 mmHg 92%
    08:00 +3°C° 1,4 mm 2 m/S 703 mmHg 92%
    09:00 +3°C° 1,4 mm 2 m/S 702 mmHg 92%
    10:00 +3°C° 1,4 mm 2 m/S 702 mmHg 91%
    11:00 +3°C° 0,8 mm 2 m/S 702 mmHg 91%
    12:00 +4°C° 0,8 mm 2 m/S 702 mmHg 91%
    13:00 +4°C° 0,8 mm 2 m/S 702 mmHg 91%
    14:00 +4°C° 0,6 mm 2 m/S 702 mmHg 91%
    15:00 +3°C° 0,6 mm 3 m/S 703 mmHg 90%
    16:00 +4°C° 0,6 mm 3 m/S 704 mmHg 90%
    17:00 +4°C° 0,6 mm 3 m/S 705 mmHg 89%
    18:00 +4°C° 0,6 mm 3 m/S 706 mmHg 88%
    19:00 +4°C° 0,6 mm 4 m/S 707 mmHg 87%
    20:00 +4°C° 0,5 mm 4 m/S 707 mmHg 86%
    21:00 +4°C° 0,5 mm 4 m/S 708 mmHg 85%
    22:00 +4°C° 0,5 mm 4 m/S 708 mmHg 85%
    23:00 +2°C° 0,1 mm 5 m/S 708 mmHg 84%

    Morgen, 12 Dezember, Dienstag

    Zeit Temperatur Niederschläge Wind Luftdruck Luftfeuchtigkeit
    00:00 +2°C° 0,1 mm 5 m/S 709 mmHg 84%
    01:00 +2°C° 0,1 mm 5 m/S 709 mmHg 83%
    02:00 +2°C° 0 mm 5 m/S 710 mmHg 83%
    03:00 +2°C° 0 mm 5 m/S 711 mmHg 83%
    04:00 +1°C° 0 mm 6 m/S 712 mmHg 83%
    05:00 +1°C° 0 mm 6 m/S 714 mmHg 83%
    06:00 -1°C° 0 mm 6 m/S 715 mmHg 82%
    07:00 -1°C° 0 mm 7 m/S 716 mmHg 82%
    08:00 -1°C° 0 mm 6 m/S 718 mmHg 82%
    09:00 -1°C° 0 mm 6 m/S 719 mmHg 83%
    10:00 -1°C° 0 mm 6 m/S 721 mmHg 83%
    11:00 -1°C° 0 mm 6 m/S 722 mmHg 82%
    12:00 0°C° 0 mm 5 m/S 722 mmHg 81%
    13:00 +1°C° 0 mm 5 m/S 723 mmHg 80%
    14:00 0°C° 0,1 mm 4 m/S 724 mmHg 82%
    15:00 0°C° 0,1 mm 4 m/S 725 mmHg 83%
    16:00 +1°C° 0,1 mm 3 m/S 725 mmHg 84%
    17:00 0°C° 0 mm 3 m/S 726 mmHg 86%
    18:00 0°C° 0 mm 3 m/S 727 mmHg 87%
    19:00 -1°C° 0 mm 3 m/S 727 mmHg 89%
    20:00 -1°C° 0 mm 3 m/S 728 mmHg 89%
    21:00 -2°C° 0 mm 3 m/S 729 mmHg 89%
    22:00 -2°C° 0 mm 3 m/S 729 mmHg 89%
    23:00 -2°C° 0 mm 3 m/S 730 mmHg 90%

    übermorgen, 13 Dezember, Mittwoch

    Zeit Temperatur Niederschläge Wind Luftdruck Luftfeuchtigkeit
    00:00 -2°C° 0 mm 3 m/S 730 mmHg 90%
    01:00 -2°C° 0 mm 3 m/S 730 mmHg 90%
    02:00 -2°C° 0 mm 3 m/S 730 mmHg 90%
    03:00 -4°C° 0 mm 3 m/S 730 mmHg 89%
    04:00 -4°C° 0 mm 3 m/S 730 mmHg 89%
    05:00 -4°C° 0 mm 3 m/S 730 mmHg 87%
    06:00 -2°C° 0 mm 3 m/S 730 mmHg 86%
    07:00 -2°C° 0 mm 3 m/S 729 mmHg 84%
    08:00 -3°C° 0 mm 4 m/S 729 mmHg 79%
    09:00 -2°C° 0 mm 4 m/S 729 mmHg 74%
    10:00 -2°C° 0 mm 4 m/S 728 mmHg 70%
    11:00 -1°C° 0 mm 4 m/S 727 mmHg 66%
    12:00 0°C° 0 mm 5 m/S 726 mmHg 62%
    13:00 +1°C° 0 mm 5 m/S 725 mmHg 58%
    14:00 +1°C° 0,3 mm 5 m/S 724 mmHg 63%
    15:00 +1°C° 0,3 mm 5 m/S 724 mmHg 68%
    16:00 +1°C° 0,3 mm 5 m/S 723 mmHg 73%
    17:00 +1°C° 0,3 mm 5 m/S 723 mmHg 75%
    18:00 +2°C° 0,3 mm 5 m/S 723 mmHg 77%
    19:00 +2°C° 0,3 mm 6 m/S 722 mmHg 79%
    20:00 +2°C° 0,2 mm 5 m/S 722 mmHg 80%
    21:00 +2°C° 0,2 mm 5 m/S 721 mmHg 81%
    22:00 +2°C° 0,2 mm 5 m/S 721 mmHg 83%
    23:00 +3°C° 0,3 mm 5 m/S 720 mmHg 83%

    14 Dezember, Donnerstag

    Zeit Temperatur Niederschläge Wind Luftdruck Luftfeuchtigkeit
    00:00 +3°C° 0,3 mm 6 m/S 719 mmHg 84%
    01:00 +3°C° 0,3 mm 6 m/S 719 mmHg 85%
    02:00 +3°C° 0,7 mm 6 m/S 718 mmHg 86%
    03:00 +3°C° 0,7 mm 6 m/S 718 mmHg 87%
    04:00 +4°C° 0,7 mm 6 m/S 718 mmHg 89%
    05:00 +4°C° 0,5 mm 6 m/S 718 mmHg 90%
    06:00 +4°C° 0,5 mm 6 m/S 718 mmHg 90%
    07:00 +5°C° 0,5 mm 5 m/S 718 mmHg 91%
    08:00 +5°C° 0,1 mm 5 m/S 717 mmHg 90%
    09:00 +5°C° 0,1 mm 5 m/S 717 mmHg 88%
    10:00 +5°C° 0,1 mm 5 m/S 717 mmHg 86%
    11:00 +4°C° 0,1 mm 6 m/S 716 mmHg 82%
    12:00 +5°C° 0,1 mm 7 m/S 715 mmHg 79%
    13:00 +5°C° 0,1 mm 8 m/S 715 mmHg 75%
    14:00 +5°C° 0,7 mm 8 m/S 714 mmHg 76%
    15:00 +5°C° 0,7 mm 8 m/S 713 mmHg 78%
    16:00 +5°C° 0,7 mm 9 m/S 713 mmHg 79%
    17:00 +4°C° 2,5 mm 8 m/S 713 mmHg 80%
    18:00 +3°C° 2,5 mm 7 m/S 713 mmHg 82%
    19:00 +2°C° 2,5 mm 7 m/S 714 mmHg 83%
    20:00 +2°C° 0,6 mm 6 m/S 715 mmHg 84%
    21:00 +1°C° 0,6 mm 5 m/S 715 mmHg 84%
    22:00 +1°C° 0,6 mm 5 m/S 716 mmHg 85%
    23:00 +1°C° 0,2 mm 4 m/S 716 mmHg 86%

    15 Dezember, Freitag

    Zeit Temperatur Niederschläge Wind Luftdruck Luftfeuchtigkeit
    00:00 +1°C° 0,2 mm 4 m/S 716 mmHg 87%
    01:00 +1°C° 0,2 mm 3 m/S 716 mmHg 88%
    02:00 +1°C° 0,2 mm 3 m/S 716 mmHg 89%
    03:00 +1°C° 0,2 mm 3 m/S 716 mmHg 90%
    04:00 +2°C° 0,2 mm 2 m/S 715 mmHg 91%
    05:00 +2°C° 0,3 mm 2 m/S 715 mmHg 91%
    06:00 +1°C° 0,3 mm 3 m/S 715 mmHg 91%
    07:00 +1°C° 0,3 mm 3 m/S 715 mmHg 90%
    08:00 +2°C° 0,1 mm 2 m/S 715 mmHg 90%
    09:00 +2°C° 0,1 mm 2 m/S 715 mmHg 90%
    10:00 +3°C° 0,1 mm 2 m/S 715 mmHg 90%
    11:00 +3°C° 0,1 mm 2 m/S 715 mmHg 89%
    12:00 +3°C° 0,1 mm 2 m/S 714 mmHg 87%
    13:00 +3°C° 0,1 mm 2 m/S 714 mmHg 85%
    14:00 +3°C° 0 mm 2 m/S 715 mmHg 86%
    15:00 +3°C° 0 mm 2 m/S 715 mmHg 86%
    16:00 +2°C° 0 mm 2 m/S 715 mmHg 86%
    17:00 +1°C° 0 mm 3 m/S 715 mmHg 86%
    18:00 0°C° 0 mm 3 m/S 715 mmHg 87%
    19:00 -1°C° 0 mm 3 m/S 715 mmHg 87%
    20:00 0°C° 0 mm 3 m/S 716 mmHg 87%
    21:00 0°C° 0 mm 3 m/S 716 mmHg 88%
    22:00 0°C° 0 mm 3 m/S 716 mmHg 89%
    23:00 0°C° 0,3 mm 3 m/S 716 mmHg 90%

    16 Dezember, Samstag

    Zeit Temperatur Niederschläge Wind Luftdruck Luftfeuchtigkeit
    00:00 0°C° 0,3 mm 3 m/S 717 mmHg 90%
    01:00 -1°C° 0,3 mm 4 m/S 717 mmHg 91%
    02:00 -1°C° 0,2 mm 4 m/S 718 mmHg 90%
    03:00 -1°C° 0,2 mm 4 m/S 718 mmHg 89%
    04:00 -2°C° 0,2 mm 5 m/S 719 mmHg 88%
    05:00 -2°C° 0,2 mm 5 m/S 719 mmHg 89%
    06:00 -2°C° 0,2 mm 5 m/S 720 mmHg 89%
    07:00 -2°C° 0,2 mm 5 m/S 721 mmHg 90%
    08:00 -1°C° 0,1 mm 5 m/S 721 mmHg 89%
    09:00 -1°C° 0,1 mm 5 m/S 722 mmHg 89%
    10:00 -1°C° 0,1 mm 5 m/S 723 mmHg 88%
    11:00 -1°C° 0,2 mm 5 m/S 723 mmHg 88%
    12:00 -1°C° 0,2 mm 5 m/S 723 mmHg 87%
    13:00 0°C° 0,2 mm 5 m/S 723 mmHg 87%
    14:00 -1°C° 0,3 mm 5 m/S 724 mmHg 87%
    15:00 -1°C° 0,3 mm 5 m/S 724 mmHg 87%
    16:00 -1°C° 0,3 mm 5 m/S 724 mmHg 87%
    17:00 -1°C° 0,1 mm 4 m/S 725 mmHg 88%
    18:00 -2°C° 0,1 mm 4 m/S 725 mmHg 88%
    19:00 -3°C° 0,1 mm 4 m/S 726 mmHg 89%
    20:00 -3°C° 0 mm 4 m/S 726 mmHg 89%
    21:00 -3°C° 0 mm 4 m/S 727 mmHg 89%
    22:00 -3°C° 0 mm 4 m/S 727 mmHg 89%
    23:00 -3°C° 0,1 mm 4 m/S 727 mmHg 90%
    Mehr zeigen